QPF
0.07 0.04 0.01 0.02 0.03 0.02 0.00 0.00 0.02 0.03 0.02 0.01 0.01 0.00 0.00 0.00 0.00 0.00 0.00 0.00 0.00 0.00 0.00 0.00 0.00 0.00 0.00 0.00 0.00 0.00 0.00 0.00 0.00 0.00 0.00 0.00 0.00 0.00 0.00 0.00 0.00 0.00 0.00
0.08 0.08 0.05 0.02 0.02 0.03 0.03 0.04 0.03 0.02 0.03 0.02 0.02 0.02 0.03 0.02 0.01 0.00 0.00 0.00 0.00 0.00 0.00 0.00 0.00 0.00 0.00 0.00 0.00 0.00 0.00 0.00 0.00 0.00 0.00 0.00 0.00 0.00 0.00 0.00 0.00 0.00 0.00
0.05 0.09 0.10 0.10 0.07 0.06 0.05 0.04 0.03 0.03 0.01 0.01 0.01 0.01 0.02 0.02 0.01 0.01 0.01 0.00 0.00 0.00 0.00 0.00 0.00 0.00 0.00 0.00 0.00 0.00 0.00 0.00 0.00 0.00 0.00 0.00 0.00 0.00 0.00 0.00 0.00 0.00 0.00
0.03 0.03 0.04 0.03 0.03 0.03 0.03 0.02 0.01 0.01 0.02 0.02 0.02 0.01 0.01 0.01 0.01 0.01 0.01 0.01 0.00 0.00 0.00 0.00 0.00 0.00 0.00 0.00 0.00 0.00 0.00 0.00 0.00 0.00 0.00 0.00 0.00 0.00 0.00 0.00 0.00 0.00 0.00
0.01 0.01 0.00 0.01 0.01 0.02 0.02 0.01 0.01 0.00 0.00 0.02 0.02 0.02 0.02 0.01 0.01 0.01 0.01 0.00 0.00 0.00 0.00 0.00 0.00 0.00 0.00 0.00 0.00 0.00 0.01 0.01 0.01 0.00 0.00 0.00 0.00 0.00 0.00 0.00 0.00 0.00 0.00
0.00 0.00 0.00 0.00 0.00 0.00 0.00 0.00 0.00 0.00 0.01 0.01 0.01 0.01 0.01 0.01 0.00 0.01 0.01 0.00 0.00 0.00 0.00 0.00 0.00 0.00 0.00 0.00 0.00 0.00 0.00 0.00 0.00 0.00 0.00 0.00 0.00 0.00 0.00 0.00 0.00 0.00 0.00
0.00 0.00 0.00 0.00 0.00 0.00 0.00 0.00 0.00 0.00 0.00 0.00 0.00 0.00 0.00 0.00 0.00 0.00 0.00 0.00 0.00 0.00 0.00 0.00 0.00 0.00 0.00 0.00 0.00 0.00 0.00 0.00 0.00 0.00 0.00 0.00 0.00 0.00 0.00 0.00 0.00 0.00 0.00
0.00 0.00 0.00 0.00 0.00 0.00 0.00 0.00 0.00 0.00 0.00 0.00 0.00 0.00 0.00 0.00 0.00 0.00 0.00 0.00 0.00 0.00 0.00 0.00 0.00 0.00 0.00 0.00 0.00 0.00 0.00 0.00 0.00 0.00 0.00 0.00 0.00 0.00 0.00 0.00 0.00 0.00 0.00
0.00 0.00 0.00 0.00 0.00 0.00 0.00 0.00 0.00 0.00 0.00 0.00 0.00 0.00 0.00 0.00 0.00 0.00 0.00 0.00 0.00 0.00 0.00 0.00 0.00 0.00 0.00 0.00 0.00 0.00 0.00 0.00 0.00 0.00 0.00 0.00 0.00 0.00 0.00 0.00 0.00 0.00 0.00
0.00 0.00 0.00 0.00 0.00 0.00 0.00 0.00 0.00 0.00 0.00 0.00 0.00 0.00 0.00 0.00 0.00 0.00 0.00 0.00 0.00 0.00 0.00 0.00 0.00 0.00 0.00 0.00 0.00 0.00 0.00 0.00 0.00 0.00 0.00 0.00 0.00 0.00 0.00 0.00 0.00 0.00 0.00
0.00 0.00 0.00 0.00 0.00 0.00 0.00 0.00 0.00 0.00 0.00 0.00 0.00 0.00 0.00 0.00 0.00 0.00 0.00 0.00 0.00 0.00 0.00 0.00 0.00 0.00 0.00 0.00 0.00 0.00 0.00 0.00 0.00 0.00 0.00 0.00 0.00 0.00 0.00 0.00 0.00 0.00 0.00
0.00 0.00 0.00 0.00 0.00 0.00 0.00 0.00 0.00 0.00 0.00 0.00 0.00 0.00 0.00 0.00 0.00 0.00 0.00 0.00 0.00 0.00 0.00 0.00 0.00 0.00 0.00 0.00 0.00 0.00 0.00 0.00 0.00 0.00 0.00 0.00 0.00 0.00 0.00 0.00 0.00 0.00 0.00
0.00 0.00 0.00 0.00 0.00 0.00 0.00 0.00 0.00 0.00 0.00 0.00 0.00 0.00 0.00 0.00 0.00 0.00 0.00 0.00 0.00 0.00 0.00 0.00 0.00 0.00 0.00 0.00 0.00 0.00 0.00 0.00 0.00 0.00 0.00 0.00 0.00 0.00 0.00 0.00 0.00 0.00 0.00
0.00 0.00 0.00 0.00 0.00 0.00 0.00 0.00 0.00 0.00 0.00 0.00 0.00 0.00 0.00 0.00 0.00 0.00 0.00 0.00 0.00 0.00 0.00 0.00 0.00 0.00 0.00 0.00 0.00 0.00 0.00 0.00 0.00 0.00 0.00 0.00 0.00 0.00 0.00 0.00 0.00 0.00 0.00
0.00 0.00 0.00 0.00 0.00 0.00 0.00 0.00 0.00 0.00 0.00 0.00 0.00 0.00 0.00 0.00 0.00 0.00 0.00 0.00 0.00 0.00 0.00 0.00 0.00 0.00 0.00 0.00 0.00 0.00 0.00 0.00 0.00 0.00 0.00 0.00 0.00 0.00 0.00 0.00 0.00 0.00 0.00
0.00 0.00 0.00 0.00 0.00 0.00 0.00 0.00 0.00 0.00 0.00 0.00 0.00 0.00 0.00 0.00 0.00 0.00 0.00 0.00 0.00 0.00 0.00 0.00 0.00 0.00 0.00 0.00 0.00 0.00 0.00 0.00 0.00 0.00 0.00 0.00 0.00 0.00 0.00 0.00 0.00 0.00 0.00
0.00 0.00 0.00 0.00 0.00 0.00 0.00 0.00 0.00 0.00 0.00 0.00 0.00 0.00 0.00 0.00 0.00 0.00 0.00 0.00 0.00 0.00 0.00 0.00 0.00 0.00 0.00 0.00 0.00 0.00 0.00 0.00 0.00 0.00 0.00 0.00 0.00 0.00 0.00 0.00 0.00 0.00 0.00
0.00 0.00 0.00 0.00 0.00 0.00 0.00 0.00 0.00 0.00 0.00 0.00 0.00 0.00 0.00 0.00 0.00 0.00 0.00 0.00 0.00 0.00 0.00 0.00 0.00 0.00 0.00 0.00 0.00 0.00 0.00 0.00 0.00 0.00 0.00 0.00 0.00 0.00 0.00 0.00 0.00 0.00 0.00
0.00 0.00 0.00 0.00 0.00 0.00 0.00 0.00 0.00 0.00 0.00 0.00 0.00 0.00 0.00 0.00 0.00 0.00 0.00 0.00 0.00 0.00 0.00 0.00 0.00 0.00 0.00 0.00 0.00 0.00 0.00 0.00 0.00 0.00 0.00 0.00 0.00 0.00 0.00 0.00 0.00 0.00 0.00
0.00 0.00 0.00 0.00 0.00 0.00 0.00 0.00 0.00 0.00 0.00 0.00 0.00 0.00 0.00 0.00 0.00 0.00 0.00 0.00 0.00 0.00 0.00 0.00 0.00 0.00 0.00 0.00 0.00 0.00 0.00 0.00 0.00 0.00 0.00 0.00 0.00 0.00 0.00 0.00 0.00 0.00 0.00
0.00 0.00 0.00 0.00 0.00 0.00 0.00 0.00 0.00 0.00 0.00 0.00 0.00 0.00 0.00 0.00 0.00 0.00 0.00 0.00 0.00 0.00 0.00 0.00 0.00 0.00 0.00 0.00 0.00 0.00 0.00 0.00 0.00 0.00 0.00 0.00 0.00 0.00 0.00 0.00 0.00 0.00 0.00
0.00 0.00 0.00 0.00 0.00 0.00 0.00 0.00 0.00 0.00 0.00 0.00 0.00 0.00 0.00 0.00 0.00 0.00 0.00 0.00 0.00 0.00 0.00 0.00 0.00 0.00 0.00 0.00 0.00 0.00 0.00 0.00 0.00 0.00 0.00 0.00 0.00 0.00 0.00 0.00 0.00 0.00 0.00
0.00 0.00 0.00 0.00 0.00 0.00 0.00 0.00 0.00 0.00 0.00 0.00 0.00 0.00 0.00 0.00 0.00 0.00 0.00 0.00 0.00 0.00 0.00 0.00 0.00 0.00 0.00 0.00 0.00 0.00 0.00 0.00 0.00 0.00 0.00 0.00 0.00 0.00 0.00 0.00 0.00 0.00 0.00
0.00 0.00 0.00 0.00 0.00 0.00 0.00 0.00 0.00 0.00 0.00 0.00 0.00 0.00 0.00 0.00 0.00 0.00 0.00 0.00 0.00 0.00 0.00 0.00 0.00 0.00 0.00 0.00 0.00 0.00 0.00 0.00 0.00 0.00 0.00 0.00 0.00 0.00 0.00 0.00 0.00 0.00 0.00
0.00 0.00 0.00 0.00 0.00 0.00 0.00 0.00 0.00 0.00 0.00 0.00 0.00 0.00 0.00 0.00 0.00 0.00 0.00 0.00 0.00 0.00 0.00 0.00 0.00 0.00 0.00 0.00 0.00 0.00 0.00 0.00 0.00 0.00 0.00 0.00 0.00 0.00 0.00 0.00 0.00 0.00 0.00
0.00 0.00 0.00 0.00 0.00 0.00 0.00 0.00 0.00 0.00 0.00 0.00 0.00 0.00 0.00 0.00 0.00 0.00 0.00 0.00 0.00 0.00 0.00 0.00 0.00 0.00 0.00 0.00 0.00 0.00 0.00 0.00 0.00 0.00 0.00 0.00 0.00 0.00 0.00 0.00 0.00 0.00 0.00
MSLP
1010.51 1010.72 1011.43 1012.04 1012.51 1012.99 1013.22 1013.26 1013.39 1013.79 1014.12 1014.52 1014.92 1015.18 1015.59 1016.02 1016.40 1016.83 1016.91 1017.07 1017.33 1017.67 1018.20 1018.57 1018.77 1019.12 1019.31 1019.54 1019.63 1019.73 1019.79 1020.02 1020.25 1020.95 1021.51 1022.10 1022.39 1023.08 1024.03 1024.81 1024.30 1026.00 1026.71
1011.24 1011.10 1011.20 1011.54 1011.96 1012.34 1012.63 1012.88 1012.93 1013.04 1013.54 1013.31 1014.19 1014.37 1014.68 1014.97 1015.35 1015.62 1015.80 1015.97 1016.12 1016.30 1016.61 1017.26 1017.40 1017.79 1018.08 1018.25 1018.51 1018.60 1018.66 1018.65 1019.13 1019.79 1020.95 1021.48 1021.69 1021.80 1022.78 1023.55 1024.86 1024.73 1026.46
1012.48 1012.47 1012.66 1012.85 1012.98 1012.48 1012.32 1012.39 1012.43 1012.24 1012.77 1013.00 1013.29 1013.53 1013.66 1014.04 1014.37 1014.40 1014.59 1014.49 1014.56 1014.68 1015.06 1015.49 1015.64 1016.21 1016.51 1016.82 1017.11 1017.31 1017.48 1017.50 1017.75 1018.15 1019.66 1020.61 1021.18 1022.10 1022.93 1023.87 1024.19 1024.82 1025.84
1014.06 1014.05 1014.00 1014.14 1014.12 1014.05 1013.83 1013.61 1013.24 1013.04 1012.68 1012.66 1012.49 1012.61 1012.89 1013.12 1013.16 1013.31 1013.45 1013.54 1013.53 1013.47 1013.42 1013.77 1014.12 1014.42 1014.73 1015.14 1015.52 1015.77 1016.09 1016.32 1016.52 1016.78 1018.01 1018.83 1019.67 1020.61 1021.74 1023.06 1024.03 1024.60 1025.55
1015.74 1015.66 1015.79 1015.59 1015.31 1014.89 1014.71 1014.39 1014.52 1014.14 1014.27 1013.96 1013.70 1013.18 1012.82 1012.53 1012.61 1012.47 1012.47 1012.43 1012.50 1012.52 1012.59 1012.64 1012.69 1012.98 1013.14 1013.37 1013.74 1014.14 1014.59 1014.74 1015.04 1015.53 1016.54 1017.48 1018.62 1019.61 1019.98 1021.03 1022.02 1023.41 1024.83
1017.24 1016.98 1017.27 1016.28 1015.88 1015.68 1015.41 1015.70 1015.68 1015.12 1015.05 1015.24 1014.94 1014.66 1014.29 1014.25 1013.96 1013.65 1013.05 1012.57 1012.22 1012.11 1012.23 1012.14 1012.24 1012.21 1012.25 1012.49 1012.43 1012.40 1012.77 1013.14 1013.79 1014.48 1015.41 1016.25 1016.85 1017.57 1018.62 1019.10 1020.43 1022.53 1024.44
1018.76 1018.54 1018.09 1017.48 1017.15 1016.87 1016.75 1016.31 1016.89 1016.19 1015.91 1016.00 1015.29 1015.45 1015.15 1014.89 1014.70 1014.08 1013.97 1013.41 1012.87 1012.53 1012.47 1012.47 1012.34 1012.18 1012.16 1012.14 1012.07 1011.96 1012.14 1012.30 1012.26 1013.15 1013.94 1014.56 1015.63 1016.59 1017.46 1018.46 1019.41 1020.57 1022.14
1020.02 1019.50 1018.61 1018.68 1018.28 1017.85 1017.83 1017.50 1017.51 1016.76 1016.63 1016.49 1016.45 1016.09 1015.95 1015.67 1014.86 1014.99 1014.18 1014.26 1013.42 1012.96 1012.37 1012.28 1012.48 1012.22 1011.78 1012.00 1012.17 1012.06 1011.59 1011.54 1011.97 1012.28 1012.82 1013.39 1014.10 1015.33 1015.92 1016.05 1018.11 1020.47 1022.21
1020.79 1020.04 1019.78 1019.31 1019.11 1018.82 1018.44 1018.25 1017.93 1017.51 1017.34 1017.18 1017.05 1016.52 1016.40 1015.90 1015.32 1015.09 1014.49 1014.50 1013.51 1013.60 1012.87 1012.27 1012.19 1012.18 1011.90 1011.92 1012.05 1011.82 1011.57 1011.60 1011.52 1011.96 1012.03 1012.77 1013.73 1014.85 1015.63 1016.63 1018.14 1019.82 1022.16
1021.59 1021.44 1020.88 1020.37 1020.02 1019.72 1019.37 1019.07 1018.78 1018.37 1018.26 1017.65 1017.57 1017.28 1016.86 1016.58 1015.69 1015.55 1015.01 1014.52 1013.77 1013.50 1013.04 1012.24 1012.35 1012.33 1011.83 1011.42 1011.83 1011.59 1011.42 1011.61 1011.77 1012.18 1012.57 1013.07 1013.72 1014.56 1015.09 1015.00 1016.95 1018.46 1020.58
1023.02 1022.42 1021.78 1021.02 1020.86 1020.42 1020.28 1019.67 1019.43 1018.90 1018.58 1018.41 1018.21 1017.90 1017.72 1017.26 1016.45 1015.95 1015.59 1014.85 1014.41 1013.43 1012.86 1012.46 1012.00 1012.00 1011.67 1011.35 1011.28 1011.35 1011.32 1011.65 1012.14 1012.33 1012.78 1013.40 1014.19 1015.02 1015.52 1015.90 1016.55 1017.70 1019.57
1023.59 1022.93 1022.27 1021.62 1021.49 1021.21 1020.76 1020.15 1019.88 1019.50 1019.27 1019.15 1018.60 1018.63 1017.95 1017.19 1016.52 1015.95 1015.37 1014.74 1014.15 1013.48 1012.78 1012.31 1012.15 1011.79 1011.19 1010.98 1011.08 1011.17 1011.49 1011.93 1012.35 1012.82 1013.31 1014.07 1014.53 1015.46 1016.17 1016.71 1017.57 1018.39 1019.34
1024.06 1023.40 1022.81 1022.39 1022.18 1021.75 1021.40 1020.93 1020.51 1020.31 1020.15 1019.91 1019.45 1018.94 1018.27 1017.60 1017.01 1016.16 1015.07 1014.17 1013.69 1013.32 1012.97 1012.53 1012.03 1011.53 1011.31 1011.06 1010.85 1010.96 1011.63 1012.05 1012.58 1013.31 1013.85 1014.27 1015.13 1015.87 1016.65 1017.49 1018.35 1019.33 1020.39
1024.79 1024.11 1023.55 1023.11 1022.67 1022.21 1021.82 1021.56 1021.40 1021.30 1021.12 1020.75 1020.24 1019.80 1019.29 1018.47 1017.62 1016.47 1015.10 1014.09 1013.64 1013.26 1012.98 1012.75 1012.37 1011.98 1011.62 1011.49 1011.22 1011.44 1011.85 1012.13 1012.62 1013.23 1014.04 1014.88 1015.48 1016.12 1017.02 1017.81 1018.80 1019.77 1020.65
1025.15 1024.69 1024.28 1023.89 1023.39 1023.04 1022.77 1022.55 1022.23 1022.20 1022.21 1021.77 1021.42 1021.07 1020.28 1019.43 1018.50 1017.46 1016.09 1014.86 1014.15 1013.79 1013.39 1013.06 1012.93 1012.78 1012.47 1012.29 1012.37 1012.41 1012.59 1012.76 1013.19 1013.86 1014.37 1015.17 1015.98 1016.71 1017.57 1018.19 1019.00 1019.92 1020.97
1025.83 1025.28 1024.86 1024.38 1023.80 1023.49 1023.30 1023.15 1022.89 1022.78 1022.74 1022.54 1022.19 1021.75 1021.08 1020.52 1019.45 1018.22 1016.97 1016.09 1015.38 1014.39 1013.78 1013.62 1013.62 1013.62 1013.47 1013.28 1013.12 1013.19 1013.30 1013.47 1013.94 1014.24 1014.75 1015.39 1016.10 1016.96 1017.89 1018.74 1019.35 1020.14 1021.34
1026.49 1025.88 1025.37 1024.95 1024.80 1024.44 1024.01 1023.66 1023.36 1023.13 1022.84 1022.67 1022.31 1022.13 1021.61 1020.96 1020.03 1019.04 1017.92 1017.18 1016.52 1015.81 1015.81 1015.28 1014.62 1014.34 1014.29 1014.18 1014.00 1013.95 1014.02 1014.02 1014.27 1014.93 1015.31 1015.97 1016.69 1017.55 1018.15 1019.05 1019.91 1020.83 1021.90
1026.40 1026.18 1025.64 1025.24 1024.99 1024.68 1024.56 1024.40 1024.29 1024.15 1024.14 1023.74 1022.99 1022.40 1021.97 1021.36 1020.70 1020.15 1019.34 1018.09 1017.80 1017.65 1017.90 1017.57 1016.94 1016.12 1015.39 1015.07 1014.85 1014.67 1014.72 1014.82 1015.07 1015.40 1016.11 1016.55 1017.33 1018.00 1018.80 1019.51 1020.34 1021.14 1022.29
1026.12 1026.28 1026.05 1025.68 1025.49 1025.35 1025.18 1025.09 1025.08 1025.10 1025.10 1024.82 1024.02 1023.17 1022.92 1022.37 1021.75 1021.25 1021.01 1021.10 1020.82 1020.21 1019.60 1019.09 1018.49 1017.69 1016.96 1016.48 1015.98 1015.66 1015.58 1015.68 1016.02 1016.08 1016.76 1017.18 1017.95 1018.65 1019.43 1020.14 1020.91 1021.79 1022.73
1026.78 1026.75 1026.57 1026.29 1026.27 1026.09 1025.88 1026.05 1025.99 1026.27 1026.29 1026.15 1025.79 1024.93 1024.60 1023.79 1023.36 1023.09 1022.90 1022.79 1022.59 1021.95 1021.32 1020.69 1019.96 1019.24 1018.54 1018.14 1017.67 1017.38 1016.95 1017.16 1017.52 1017.61 1017.88 1018.35 1018.86 1019.59 1020.34 1021.01 1021.74 1022.54 1023.66
1027.02 1026.82 1026.84 1026.77 1026.95 1027.29 1027.07 1027.25 1027.22 1027.36 1027.30 1027.12 1026.90 1025.86 1025.44 1025.73 1025.74 1025.03 1024.35 1023.89 1023.76 1023.25 1022.78 1022.02 1021.30 1020.76 1020.11 1019.57 1019.39 1018.87 1018.56 1018.61 1018.93 1019.14 1019.51 1019.71 1020.20 1020.99 1021.49 1022.19 1022.87 1023.60 1024.42
1027.45 1027.38 1027.42 1027.73 1027.38 1027.89 1028.11 1027.76 1028.03 1028.18 1028.24 1028.08 1027.78 1026.99 1026.45 1026.26 1026.28 1026.08 1025.97 1025.23 1024.59 1024.15 1023.62 1023.21 1022.64 1022.01 1021.85 1021.19 1020.49 1020.42 1020.19 1020.15 1020.29 1020.43 1020.69 1021.14 1021.70 1022.23 1022.84 1023.30 1023.87 1024.70 1025.42
1027.66 1027.71 1027.91 1028.00 1027.96 1028.03 1028.34 1028.35 1028.74 1028.93 1028.91 1028.65 1028.29 1027.89 1027.47 1027.04 1026.74 1026.51 1026.12 1026.10 1025.32 1025.09 1024.54 1023.89 1023.43 1023.06 1022.76 1022.54 1022.15 1021.70 1021.64 1021.69 1021.63 1021.67 1022.09 1022.46 1022.73 1023.11 1023.62 1024.64 1025.13 1025.64 1026.19
1027.65 1027.87 1028.22 1028.33 1028.25 1028.64 1028.97 1029.07 1028.84 1028.77 1028.98 1029.02 1028.68 1028.40 1028.24 1027.78 1027.40 1027.02 1026.72 1026.37 1026.49 1026.15 1025.22 1024.92 1024.63 1024.21 1023.72 1023.55 1023.31 1023.01 1022.87 1022.65 1022.65 1022.67 1022.68 1023.05 1023.70 1024.42 1024.92 1025.40 1025.60 1026.41 1027.08
1027.73 1027.89 1028.15 1028.55 1028.69 1028.78 1028.99 1029.19 1029.04 1028.98 1029.00 1029.01 1029.04 1028.67 1028.51 1028.15 1027.66 1027.49 1027.60 1026.80 1026.52 1026.69 1026.12 1025.65 1025.49 1025.20 1024.75 1024.57 1024.54 1024.27 1023.97 1023.66 1023.44 1023.53 1023.75 1024.07 1024.51 1024.97 1025.53 1026.19 1026.83 1027.35 1027.56
1027.44 1027.71 1028.08 1028.26 1028.49 1028.51 1028.84 1029.03 1029.14 1028.83 1028.99 1028.86 1028.79 1028.68 1028.60 1028.33 1028.19 1028.04 1027.55 1027.23 1026.89 1026.89 1026.72 1026.18 1025.77 1025.58 1025.55 1025.29 1025.09 1024.94 1024.71 1024.67 1024.72 1024.62 1024.66 1024.98 1025.47 1026.13 1026.56 1026.95 1027.24 1027.60 1028.19
Thickness
5603 5606 5606 5606 5608 5607 5610 5615 5616 5615 5615 5614 5611 5610 5607 5603 5601 5597 5597 5597 5595 5593 5588 5584 5582 5580 5577 5575 5573 5571 5570 5566 5564 5554 5549 5542 5535 5525 5513 5503 5503 5484 5477
5585 5593 5597 5601 5603 5605 5606 5607 5611 5611 5610 5616 5608 5607 5605 5602 5601 5599 5597 5597 5595 5594 5590 5583 5583 5580 5575 5575 5573 5571 5569 5567 5559 5559 5539 5535 5529 5523 5513 5502 5487 5484 5469
5564 5568 5573 5577 5583 5594 5600 5602 5605 5605 5606 5608 5606 5605 5604 5602 5599 5600 5598 5601 5599 5597 5593 5588 5587 5581 5578 5575 5571 5570 5567 5564 5557 5556 5535 5528 5520 5510 5500 5488 5482 5473 5466
5540 5545 5552 5557 5564 5570 5577 5582 5587 5592 5597 5600 5601 5602 5601 5599 5599 5598 5597 5595 5596 5596 5595 5592 5589 5585 5582 5577 5571 5568 5563 5559 5556 5552 5535 5528 5520 5509 5496 5482 5471 5464 5456
5519 5525 5530 5538 5545 5554 5560 5565 5566 5571 5571 5576 5580 5587 5591 5593 5592 5592 5592 5592 5592 5592 5588 5587 5584 5584 5579 5578 5573 5568 5561 5558 5553 5547 5537 5526 5513 5503 5498 5486 5475 5461 5446
5502 5509 5512 5523 5533 5539 5546 5546 5547 5553 5554 5554 5556 5561 5565 5565 5565 5567 5571 5576 5579 5580 5581 5579 5576 5573 5571 5567 5566 5566 5561 5554 5547 5539 5532 5523 5517 5508 5495 5488 5473 5453 5436
5484 5490 5497 5507 5514 5522 5527 5533 5529 5535 5538 5536 5543 5542 5546 5548 5548 5551 5550 5554 5559 5561 5561 5560 5559 5558 5556 5554 5553 5552 5548 5543 5544 5534 5525 5520 5509 5498 5487 5475 5468 5453 5438
5469 5480 5488 5491 5498 5505 5509 5513 5514 5519 5519 5520 5521 5525 5526 5529 5533 5531 5536 5533 5538 5541 5544 5544 5542 5543 5545 5540 5535 5535 5537 5535 5530 5523 5519 5512 5504 5491 5483 5478 5457 5436 5421
5461 5470 5474 5481 5485 5490 5496 5498 5501 5504 5505 5505 5506 5510 5510 5512 5516 5516 5517 5517 5522 5520 5522 5524 5521 5523 5524 5522 5519 5518 5521 5518 5517 5509 5507 5497 5487 5476 5466 5454 5443 5430 5410
5453 5456 5462 5467 5472 5476 5479 5482 5484 5487 5487 5492 5490 5491 5492 5492 5498 5496 5497 5497 5501 5503 5503 5509 5507 5505 5506 5507 5502 5501 5505 5499 5494 5488 5484 5478 5471 5462 5457 5456 5439 5428 5411
5437 5443 5449 5457 5459 5464 5465 5468 5470 5474 5475 5474 5473 5474 5472 5473 5476 5478 5476 5481 5482 5487 5489 5490 5491 5489 5490 5491 5490 5486 5486 5480 5475 5472 5467 5460 5453 5446 5440 5436 5431 5423 5409
5437 5441 5446 5452 5451 5454 5456 5460 5461 5462 5463 5462 5463 5459 5462 5466 5468 5468 5469 5471 5472 5474 5477 5477 5475 5476 5480 5480 5477 5474 5472 5465 5461 5456 5451 5443 5440 5431 5425 5419 5413 5407 5400
5433 5438 5443 5445 5445 5447 5448 5451 5453 5452 5450 5449 5450 5451 5451 5453 5453 5456 5461 5464 5464 5464 5462 5463 5464 5466 5465 5463 5463 5460 5453 5449 5444 5438 5433 5431 5422 5415 5408 5402 5395 5388 5381
5428 5431 5434 5436 5438 5440 5441 5441 5439 5437 5435 5435 5436 5435 5434 5436 5437 5441 5447 5451 5451 5450 5448 5445 5445 5446 5445 5443 5442 5439 5434 5432 5427 5423 5417 5410 5406 5402 5394 5387 5381 5374 5368
5423 5424 5424 5425 5428 5430 5429 5427 5426 5423 5419 5418 5417 5416 5417 5418 5419 5422 5429 5433 5433 5431 5430 5428 5425 5422 5422 5420 5416 5412 5410 5408 5403 5398 5395 5390 5386 5382 5377 5372 5365 5359 5351
5418 5417 5416 5417 5420 5419 5418 5416 5413 5410 5405 5403 5402 5401 5400 5398 5401 5404 5409 5410 5410 5414 5413 5411 5406 5401 5397 5395 5393 5389 5385 5383 5378 5377 5376 5373 5370 5364 5358 5352 5348 5343 5335
5411 5412 5414 5413 5410 5409 5408 5406 5401 5399 5399 5395 5392 5388 5385 5383 5383 5383 5385 5386 5387 5387 5381 5383 5385 5381 5374 5371 5368 5365 5362 5363 5362 5357 5357 5355 5349 5344 5342 5335 5330 5323 5317
5410 5407 5410 5410 5408 5407 5403 5400 5396 5391 5383 5378 5378 5377 5372 5369 5365 5360 5359 5363 5360 5357 5351 5349 5349 5352 5353 5351 5347 5344 5339 5339 5343 5343 5338 5336 5330 5326 5322 5319 5313 5309 5301
5413 5406 5402 5403 5400 5397 5393 5389 5384 5378 5372 5366 5364 5362 5354 5351 5347 5340 5333 5325 5322 5323 5323 5323 5323 5325 5326 5325 5324 5322 5319 5318 5321 5324 5321 5319 5313 5309 5305 5302 5298 5292 5285
5405 5399 5393 5394 5389 5386 5383 5378 5373 5363 5354 5348 5343 5342 5333 5329 5322 5311 5304 5299 5296 5297 5298 5298 5299 5300 5302 5301 5302 5301 5302 5300 5296 5299 5300 5298 5295 5290 5287 5283 5280 5275 5267
5399 5395 5388 5386 5378 5368 5370 5365 5359 5350 5337 5331 5326 5328 5321 5306 5294 5285 5283 5280 5276 5276 5276 5277 5278 5278 5280 5282 5281 5283 5284 5282 5279 5280 5278 5277 5273 5269 5267 5262 5258 5253 5248
5390 5383 5376 5371 5370 5359 5352 5346 5344 5337 5325 5318 5312 5308 5305 5292 5279 5266 5260 5260 5260 5259 5260 5259 5260 5262 5260 5262 5265 5264 5264 5264 5263 5262 5260 5257 5253 5250 5246 5243 5240 5235 5231
5378 5373 5367 5361 5356 5350 5342 5335 5328 5320 5312 5304 5297 5292 5284 5276 5265 5254 5252 5247 5247 5244 5245 5248 5248 5247 5246 5246 5247 5248 5248 5247 5247 5246 5242 5239 5238 5234 5232 5224 5224 5220 5217
5371 5364 5358 5352 5347 5340 5332 5325 5318 5311 5302 5294 5287 5280 5273 5266 5257 5248 5243 5239 5232 5231 5234 5233 5233 5234 5234 5232 5232 5233 5233 5234 5234 5233 5232 5229 5224 5219 5216 5212 5212 5206 5201
5362 5356 5350 5344 5338 5332 5324 5315 5308 5301 5294 5287 5278 5273 5265 5258 5250 5242 5234 5233 5229 5223 5224 5224 5222 5221 5222 5221 5218 5218 5218 5220 5221 5220 5218 5216 5212 5209 5205 5200 5196 5192 5191
5356 5349 5340 5333 5327 5321 5315 5307 5300 5293 5287 5280 5273 5267 5260 5253 5245 5238 5233 5227 5224 5219 5215 5216 5215 5214 5211 5209 5208 5207 5207 5206 5206 5206 5206 5203 5199 5194 5191 5188 5187 5185 5180